Location: Newark
(3.1475°N, 101.6933°E)
Time: 13:49:20
(UTC+00:00)

Envisat - Visible Passes

Search period start: 20 September 2019 00:00
Search period end: 30 September 2019 00:00
Orbit: 764 x 766 km, 98.1° (Epoch: 20 September)

Date Brightness Start Highest point End Pass type
(mag) Time Alt. Az. Time Alt. Az. Time Alt. Az.
20 Sep 5.2 12:32:42 10° SSW 12:36:53 26° WSW 12:41:03 10° NW visible
21 Sep 3.2 11:55:09 10° S 12:00:13 75° WSW 12:05:16 10° NNW visible
22 Sep 6.1 13:00:18 10° SW 13:02:19 12° WSW 13:04:19 10° WNW visible
23 Sep 4.6 12:21:03 10° SSW 12:25:39 35° WSW 12:30:15 10° NW visible
24 Sep 2.9 11:43:54 10° SSE 11:48:59 80° ENE 11:54:03 10° N visible
25 Sep 5.8 12:47:52 10° SW 12:51:05 17° WSW 12:54:19 10° WNW visible
26 Sep 4.0 12:09:32 10° S 12:14:25 48° WSW 12:19:18 10° NNW visible
27 Sep 3.0 11:32:46 10° SSE 11:37:45 58° ENE 11:42:43 10° N visible
28 Sep 5.4 12:35:54 10° SSW 12:39:52 23° WSW 12:43:49 10° NW visible
29 Sep 3.4 11:58:09 10° S 12:03:11 67° WSW 12:08:13 10° NNW visible
